Wind_Speed
28 28 27 25 24 24 24 24 25 24 24 23 26 27 28 29 30 32 33 35 36 38 40 40 42 42 44 46 49 51 52 53 54 55 56 56 55 55 56 56 56 55 55 54
29 28 27 25 25 26 25 25 25 25 24 24 24 26 27 28 29 30 32 34 35 37 38 39 41 43 44 45 48 50 52 53 54 57 57 56 55 55 56 57 57 56 55 55
30 29 28 26 26 25 25 25 25 25 24 25 25 26 27 27 28 28 31 32 34 35 36 37 39 41 42 44 45 47 49 51 54 56 58 58 58 57 57 58 58 57 57 57
30 30 28 27 26 25 26 26 26 26 26 25 25 26 26 27 28 28 29 30 32 34 35 35 36 38 40 41 43 45 46 47 51 54 56 57 57 58 57 58 57 57 56 56
31 31 29 27 27 27 27 26 27 27 27 27 27 26 26 27 28 28 29 30 32 33 35 35 36 38 39 40 42 43 45 46 47 50 53 55 56 57 58 58 58 57 57 56
31 31 29 28 28 29 28 27 27 27 28 27 27 27 26 27 27 28 28 30 31 32 34 34 35 36 38 40 42 43 44 46 48 49 51 53 55 57 58 58 58 58 57 56
30 30 29 29 29 29 29 28 28 28 28 28 28 28 27 27 27 28 29 29 31 32 33 33 34 35 36 38 40 41 42 44 46 48 49 52 53 55 56 58 58 58 59 58
30 30 29 29 29 28 28 28 29 28 28 28 29 29 28 28 28 28 28 29 29 30 31 32 33 33 34 35 37 38 39 41 43 45 47 49 51 53 54 56 57 58 58 58
30 29 29 29 29 29 29 29 29 28 28 28 28 28 28 27 27 28 28 28 29 29 29 30 31 32 33 33 34 36 37 38 41 42 44 46 48 50 51 53 55 56 57 57
29 28 29 29 29 29 29 29 29 28 28 28 28 27 27 27 28 28 27 28 28 28 28 28 29 30 30 31 32 34 35 36 38 41 43 44 46 48 50 52 53 54 56 56
29 29 29 29 29 30 29 29 28 28 28 27 27 27 27 27 27 27 27 27 26 26 27 27 27 28 29 30 31 32 33 34 35 37 40 42 44 45 48 50 51 52 53 53
30 30 30 29 29 30 29 28 28 27 27 27 27 27 27 27 27 26 26 26 26 26 26 26 27 28 28 29 31 32 33 33 34 35 36 39 41 43 44 46 48 49 50 51
30 30 30 29 29 29 28 28 28 27 27 27 27 27 28 27 26 26 26 26 26 26 26 26 26 27 28 29 29 30 31 32 33 33 34 37 39 41 42 43 45 46 47 48
30 30 29 29 29 29 29 28 27 27 27 27 27 27 27 26 26 26 26 26 25 25 25 25 25 26 27 27 28 29 29 30 31 32 33 35 37 39 41 42 43 44 44 45
30 30 29 29 29 29 29 28 28 28 28 27 27 27 27 27 27 27 27 26 25 24 24 24 25 25 26 27 27 27 28 28 30 31 32 34 35 38 39 41 42 43 44 44
30 29 29 29 29 29 29 28 27 27 28 28 28 28 28 28 28 27 26 25 24 24 24 24 24 25 25 26 26 27 27 28 28 29 31 32 34 35 37 39 40 42 44 45
29 29 29 29 29 28 28 27 27 27 27 27 28 28 29 29 28 27 27 26 25 25 25 25 25 25 26 26 26 26 27 27 27 28 29 30 32 33 34 36 39 40 42 43
29 29 29 29 28 28 27 27 27 27 27 28 29 29 29 29 28 27 27 26 26 25 25 25 25 25 25 25 25 25 26 27 27 27 28 29 30 32 33 35 36 38 38 39
28 28 28 28 28 27 27 27 27 28 28 29 29 29 28 28 28 27 27 26 26 25 25 25 25 25 25 25 25 25 25 25 26 27 28 29 30 31 32 32 34 35 37 38
27 28 28 28 28 27 27 28 28 28 28 28 28 28 28 27 27 27 26 26 26 25 25 25 25 24 23 24 24 24 24 25 26 26 27 28 29 30 30 31 32 34 35 36
27 27 27 27 27 27 27 27 27 27 27 27 27 27 26 26 25 25 25 25 25 24 24 24 24 23 23 23 23 23 24 24 25 25 26 27 28 30 30 30 31 33 34 35
26 26 26 26 26 26 26 26 26 26 26 26 26 25 24 24 23 23 23 23 22 22 22 22 22 22 22 22 22 22 23 24 24 24 25 27 27 28 29 30 31 32 33 33
26 26 26 26 25 25 25 25 25 25 25 25 24 23 22 22 22 21 21 21 21 21 21 21 21 21 21 22 22 22 22 23 23 24 25 26 27 28 28 29 30 30 31 32
26 26 26 25 25 24 24 24 24 24 23 23 23 22 21 20 20 20 20 19 19 19 19 19 19 20 20 20 21 21 21 22 22 23 24 25 26 26 27 28 28 29 30 31
25 25 24 23 23 23 22 23 22 22 22 21 21 20 19 19 18 18 18 17 17 17 18 18 18 19 19 19 20 20 20 20 21 21 22 23 24 26 26 27 27 28 29 29
25 24 23 23 22 22 22 22 21 21 20 19 19 19 19 19 18 18 18 17 17 17 17 17 17 17 18 18 18 18 18 19 19 20 21 21 22 24 25 26 26 27 27 28
25 24 23 22 22 22 22 22 21 21 20 20 19 19 19 18 18 18 17 17 17 17 17 17 17 17 16 16 16 16 16 17 18 18 18 19 20 21 22 24 25 26 27 27
Wind_Direction
312 310 307 303 301 298 296 297 296 295 291 287 282 280 277 274 270 265 261 258 255 253 251 250 249 248 247 246 244 242 241 239 237 235 233 234 233 233 233 232 232 234 235 236
311 308 305 302 300 299 298 296 296 295 293 290 289 285 282 277 274 269 265 261 257 255 254 252 251 250 249 248 246 244 243 241 238 235 234 234 234 234 233 233 234 234 236 236
313 309 305 301 303 300 297 296 295 294 295 293 289 287 285 281 277 273 267 263 260 258 257 256 254 252 251 249 246 245 244 243 240 238 236 235 235 235 234 234 235 236 236 237
313 311 307 306 301 300 299 297 294 293 294 293 291 288 286 283 280 276 270 265 262 258 257 256 255 253 252 250 248 246 245 245 243 240 238 237 237 237 236 236 237 238 237 238
312 311 309 305 302 300 300 299 295 293 293 292 292 290 286 284 282 281 275 270 265 262 260 258 257 255 254 253 250 249 247 246 244 242 239 237 237 237 236 236 237 237 237 237
310 310 310 307 304 301 299 299 298 294 292 292 292 291 288 285 284 280 277 273 269 265 264 261 259 256 255 253 253 252 250 248 246 243 241 239 238 237 236 236 236 237 237 237
308 308 308 307 305 302 300 300 298 297 294 293 293 293 291 288 285 282 278 275 272 268 266 265 263 260 257 255 254 253 250 248 245 243 241 240 238 237 236 236 236 237 237 237
307 308 309 307 304 302 301 300 298 296 294 293 293 294 293 291 288 284 281 277 274 271 269 267 265 262 259 257 255 252 250 247 244 244 243 241 238 238 238 237 237 238 238 237
306 307 306 306 303 301 300 299 298 296 295 294 293 293 294 292 290 287 283 278 276 272 270 268 266 263 261 258 255 252 251 248 245 245 245 242 240 239 239 238 238 238 238 237
305 306 305 304 303 301 299 298 298 296 295 295 295 294 294 293 292 289 287 283 278 275 271 269 266 264 262 259 256 253 250 249 249 247 245 243 240 239 238 238 238 238 238 238
304 305 304 304 302 301 299 299 298 297 296 295 295 294 295 295 293 291 290 287 282 278 273 271 268 266 264 260 257 255 253 252 250 248 246 243 241 240 239 238 238 238 238 238
301 302 303 303 300 300 299 299 298 297 297 296 295 294 294 295 293 292 291 289 285 280 275 272 271 268 264 260 257 255 254 253 250 247 245 242 239 238 238 238 238 238 238 238
298 299 300 301 300 298 298 298 297 297 297 296 295 295 295 294 293 292 290 289 285 281 278 276 274 271 266 262 259 257 256 253 251 248 245 243 240 238 238 238 238 238 238 238
297 298 298 299 299 298 297 297 298 297 297 297 297 297 297 295 294 293 291 288 286 282 280 277 275 271 267 264 262 260 257 254 251 248 245 243 240 238 237 237 237 237 237 237
296 297 298 298 298 297 297 296 296 296 296 295 296 297 298 296 294 293 291 289 286 283 280 278 277 274 270 267 264 261 258 255 252 249 246 244 242 240 238 237 237 237 237 237
296 297 298 298 298 297 296 296 296 295 295 295 294 295 296 296 295 293 292 290 287 284 282 280 278 275 273 271 268 264 260 257 255 251 248 246 244 242 240 239 238 238 238 238
297 298 298 298 297 297 296 295 295 294 294 295 296 295 294 294 294 293 291 289 286 284 282 280 279 277 275 273 269 265 261 258 254 251 249 247 244 242 240 239 238 238 238 237
299 298 298 298 298 297 295 295 295 295 296 297 297 296 295 294 294 293 290 287 285 283 282 280 278 277 275 273 270 266 262 257 254 252 250 248 245 243 241 239 238 237 236 236
300 299 300 300 299 298 297 296 296 296 297 298 298 297 296 295 294 293 291 287 284 283 282 281 278 276 274 272 270 268 263 258 255 253 251 249 246 242 241 239 238 237 236 237
301 301 301 301 299 299 298 297 297 297 299 300 299 299 298 297 295 294 292 288 285 283 282 280 278 277 275 271 270 268 265 260 257 254 252 250 247 242 240 239 239 238 238 238
303 303 303 302 301 301 300 300 299 300 301 302 301 300 299 297 296 295 294 290 288 286 283 282 280 278 276 273 270 268 266 262 258 254 252 249 247 244 242 241 239 238 238 238
304 304 305 304 303 303 303 302 302 302 302 302 303 302 300 298 297 296 295 292 289 287 285 282 281 279 277 273 270 268 267 264 260 256 252 248 246 245 245 243 241 239 239 239
305 306 306 305 305 305 305 305 305 304 305 305 305 304 302 300 299 298 296 294 290 288 287 284 281 280 277 275 272 269 267 264 261 257 253 251 248 246 244 242 241 239 239 239
305 305 305 305 305 306 307 307 308 308 308 308 308 307 306 304 303 303 301 298 294 290 288 286 284 282 279 276 273 270 267 264 261 258 254 251 248 245 244 242 241 241 241 241
307 308 308 307 307 307 308 309 311 311 311 311 310 310 309 308 306 305 304 303 299 294 290 287 285 283 280 277 274 271 268 265 261 258 256 253 249 246 244 243 241 241 241 241
308 308 308 309 309 309 310 311 312 313 312 312 311 311 310 309 308 307 305 303 301 297 294 291 288 285 281 278 276 273 269 265 262 258 255 253 250 247 244 242 241 241 241 242
307 307 307 308 308 309 309 310 311 312 311 310 310 310 309 308 308 307 305 304 303 299 295 293 291 289 285 281 278 275 270 265 261 257 254 252 249 247 244 242 241 241 242 243
Height
5568 5563 5560 5557 5554 5551 5548 5545 5542 5541 5538 5537 5536 5535 5534 5533 5532 5532 5532 5533 5534 5535 5536 5538 5540 5542 5544 5547 5550 5554 5558 5563 5568 5573 5579 5585 5591 5597 5603 5610 5617 5623 5630 5635
5563 5558 5554 5552 5549 5546 5543 5540 5537 5535 5533 5532 5530 5528 5527 5526 5525 5524 5524 5525 5525 5526 5527 5528 5530 5532 5533 5536 5539 5542 5546 5551 5556 5561 5567 5573 5579 5585 5591 5598 5605 5611 5618 5624
5556 5552 5548 5547 5544 5540 5537 5535 5532 5529 5529 5526 5524 5522 5520 5518 5517 5516 5516 5516 5516 5517 5518 5519 5520 5522 5523 5525 5528 5531 5535 5538 5543 5548 5554 5560 5567 5573 5580 5586 5592 5599 5606 5612
5550 5547 5543 5544 5538 5534 5531 5529 5526 5523 5521 5519 5517 5515 5513 5511 5510 5509 5508 5508 5507 5508 5508 5509 5510 5511 5513 5514 5517 5520 5523 5527 5531 5536 5542 5548 5554 5560 5567 5574 5580 5586 5593 5599
5543 5539 5537 5536 5532 5528 5525 5523 5520 5517 5515 5513 5510 5508 5507 5504 5502 5501 5500 5499 5499 5499 5499 5500 5500 5501 5502 5504 5506 5509 5512 5515 5519 5523 5529 5535 5541 5547 5554 5560 5567 5573 5580 5586
5537 5533 5530 5530 5525 5520 5518 5517 5514 5510 5508 5505 5503 5502 5501 5497 5495 5493 5492 5491 5490 5490 5490 5490 5490 5491 5492 5493 5495 5498 5500 5504 5507 5511 5516 5522 5527 5534 5540 5547 5554 5560 5567 5573
5531 5527 5524 5522 5518 5514 5512 5510 5506 5503 5500 5498 5496 5494 5492 5489 5487 5485 5484 5482 5481 5481 5480 5481 5481 5481 5482 5483 5485 5486 5489 5492 5495 5499 5504 5509 5515 5521 5527 5533 5540 5547 5554 5560
5525 5521 5521 5515 5511 5508 5505 5501 5498 5495 5493 5491 5488 5486 5483 5481 5479 5477 5475 5474 5473 5472 5471 5471 5471 5471 5472 5473 5474 5476 5478 5481 5484 5488 5492 5497 5502 5508 5513 5519 5526 5532 5539 5546
5520 5518 5512 5508 5504 5500 5497 5494 5491 5488 5486 5483 5481 5478 5476 5474 5472 5469 5467 5466 5464 5463 5463 5463 5462 5462 5462 5463 5464 5466 5468 5470 5473 5477 5480 5484 5489 5495 5500 5506 5512 5519 5525 5532
5512 5510 5505 5501 5497 5493 5490 5486 5484 5481 5478 5476 5473 5471 5469 5466 5464 5462 5460 5458 5456 5455 5454 5453 5453 5452 5452 5453 5454 5456 5458 5461 5463 5465 5469 5472 5477 5482 5488 5494 5499 5506 5512 5519
5505 5502 5498 5494 5490 5486 5482 5479 5476 5474 5471 5468 5466 5464 5461 5459 5456 5454 5452 5450 5448 5447 5446 5445 5444 5444 5444 5445 5446 5447 5449 5451 5453 5455 5457 5461 5466 5471 5476 5482 5488 5494 5500 5506
5498 5495 5491 5487 5483 5479 5476 5472 5469 5467 5464 5461 5458 5456 5454 5451 5449 5446 5444 5442 5441 5440 5438 5438 5437 5436 5436 5436 5437 5438 5440 5441 5443 5445 5447 5451 5455 5460 5464 5470 5476 5481 5487 5493
5490 5486 5482 5479 5475 5472 5469 5466 5463 5460 5457 5454 5451 5449 5446 5444 5441 5439 5437 5435 5433 5432 5431 5430 5429 5428 5428 5428 5429 5429 5430 5432 5433 5435 5438 5441 5445 5449 5454 5459 5464 5470 5475 5481
5481 5478 5474 5471 5468 5464 5461 5459 5456 5453 5450 5447 5445 5442 5439 5437 5434 5432 5429 5427 5426 5424 5423 5422 5421 5420 5420 5420 5420 5421 5421 5423 5424 5426 5428 5431 5435 5439 5444 5449 5454 5459 5464 5470
5473 5470 5467 5464 5460 5457 5454 5451 5449 5446 5443 5441 5438 5435 5432 5430 5427 5425 5422 5420 5418 5416 5415 5414 5413 5412 5412 5411 5411 5412 5413 5414 5415 5417 5419 5422 5425 5429 5434 5438 5443 5448 5454 5459
5465 5462 5459 5456 5453 5450 5447 5444 5441 5439 5436 5434 5431 5428 5425 5422 5420 5417 5415 5412 5411 5409 5408 5407 5406 5405 5404 5403 5403 5404 5404 5405 5406 5408 5410 5413 5416 5420 5423 5428 5433 5438 5443 5448
5458 5455 5452 5449 5446 5442 5439 5437 5434 5432 5429 5426 5424 5420 5418 5415 5412 5410 5407 5405 5403 5402 5401 5399 5398 5397 5397 5396 5396 5396 5396 5397 5399 5400 5402 5405 5407 5410 5414 5418 5423 5427 5432 5437
5450 5447 5444 5441 5438 5435 5432 5429 5427 5424 5422 5419 5416 5412 5409 5407 5404 5402 5400 5398 5396 5394 5393 5392 5391 5390 5389 5389 5388 5388 5389 5390 5391 5393 5394 5397 5399 5402 5405 5409 5413 5417 5422 5426
5442 5439 5436 5433 5430 5427 5425 5422 5419 5416 5414 5411 5408 5404 5401 5399 5397 5394 5392 5390 5388 5387 5386 5384 5383 5382 5382 5381 5381 5381 5381 5382 5384 5385 5387 5389 5391 5394 5397 5400 5404 5408 5412 5417
5435 5432 5429 5426 5423 5420 5417 5414 5411 5409 5406 5402 5399 5396 5394 5391 5388 5386 5384 5382 5380 5379 5378 5377 5376 5375 5374 5374 5373 5373 5374 5374 5376 5377 5379 5381 5383 5386 5388 5392 5395 5399 5403 5407
5428 5425 5422 5419 5416 5413 5410 5407 5404 5401 5398 5395 5392 5389 5386 5383 5381 5378 5376 5374 5373 5371 5370 5369 5368 5367 5367 5366 5366 5366 5366 5367 5368 5369 5371 5373 5375 5378 5381 5384 5387 5391 5394 5398
5421 5418 5415 5412 5409 5406 5403 5400 5397 5394 5391 5388 5385 5382 5379 5376 5374 5372 5369 5367 5366 5364 5363 5362 5361 5360 5359 5359 5359 5359 5359 5360 5360 5361 5363 5365 5367 5370 5372 5376 5379 5382 5386 5389
5415 5412 5409 5405 5402 5399 5396 5393 5390 5387 5384 5381 5378 5375 5372 5370 5368 5365 5363 5361 5359 5357 5356 5355 5354 5353 5353 5352 5352 5352 5352 5352 5353 5354 5355 5357 5359 5362 5364 5367 5370 5374 5377 5380
5408 5405 5402 5399 5396 5393 5390 5387 5384 5381 5378 5375 5372 5369 5366 5364 5361 5359 5357 5355 5352 5351 5350 5349 5348 5347 5346 5346 5345 5345 5345 5345 5346 5347 5348 5350 5352 5354 5356 5359 5362 5365 5368 5371
5402 5399 5396 5393 5390 5387 5384 5382 5379 5375 5372 5369 5366 5363 5361 5358 5356 5354 5351 5349 5347 5346 5344 5343 5342 5341 5340 5339 5339 5338 5338 5339 5339 5340 5341 5343 5344 5346 5349 5351 5354 5357 5360 5363
5396 5393 5390 5387 5384 5382 5379 5376 5373 5370 5367 5364 5362 5359 5356 5354 5351 5349 5347 5345 5343 5341 5339 5338 5336 5335 5334 5333 5332 5332 5332 5332 5333 5334 5335 5336 5337 5339 5341 5344 5346 5349 5352 5354
5390 5387 5384 5382 5379 5376 5374 5371 5368 5365 5362 5360 5357 5354 5352 5349 5347 5345 5342 5340 5338 5336 5335 5333 5331 5330 5329 5327 5327 5326 5326 5326 5327 5327 5328 5329 5331 5332 5334 5336 5339 5341 5343 5346